[[{"header":{"parameterUnit":"m.s-1","parameterCategory":1,"la1":30.2991,"la2":30.254,"lo1":-89.0895,"lo2":-89.0444,"dy":0.0017,"dx":0.0017,"nx":28,"ny":28,"refTime":"2024-08-18T21:00:00:Z","depth":0,"parameterNumber":2,"parameterNumberName":"U-component_of_WINDS"},"data":[0,0,0,0,0,0,0,0,0,0,0,0,0,0,0,0,0,0,0,0,0,0,0,0,0,0,0,0,0,0,0,0,0,0,0,0,0,0,0,0,0,0,0,0,0,0,0,0,0,0,0,0,0,0,0,0,0,0,2.0171,2.0172,0,2.0241,2.0242,2.0243,2.0195,2.0193,2.019,2.0188,2.0268,2.0272,2.0276,0,0,0,0,0,0,0,0,0,0,0,0,0,2.0005,2.0009,2.0171,2.0172,2.0173,2.0241,2.0242,2.0243,2.0195,2.0193,2.019,2.0187,2.0266,2.0271,2.0276,0,0,0,0,0,0,0,0,0,0,0,0,0,2.0077,2.001,2.0171,2.0157,2.0157,2.0241,2.0242,2.0243,2.0196,2.0192,2.0189,2.0186,2.0265,2.0271,2.0277,2.0381,0,0,2.0296,2.0298,0,0,0,0,0,0,0,0,2.0073,2.0083,2.0158,2.0158,2.0158,2.0206,2.0212,2.029,2.0197,2.0181,2.0188,2.0185,2.025,2.0257,2.0278,2.0384,2.0388,2.0296,2.03,2.0303,2.0304,0,0,0,0,0,0,0,2.0068,2.008,2.0199,2.016,2.0159,2.015,2.0157,2.0227,2.0234,2.0182,2.0179,2.0187,2.0249,2.0272,2.0279,2.0389,2.0296,2.0302,2.0305,2.0308,2.0589,2.0592,0,0,0,0,0,0,2.0063,2.0076,2.0197,2.0201,2.0106,2.0156,2.0163,2.0194,2.0232,2.0235,2.019,2.0185,2.0263,2.0272,2.0282,2.0409,2.0303,2.0309,2.0312,2.0585,2.059,2.0594,0,0,0,0,0,0,2.006,2.0074,2.0194,2.0138,2.0152,2.0162,2.0197,2.0197,2.0219,2.0238,2.024,2.0211,2.0261,2.0273,2.0357,2.0411,2.0311,2.0317,2.0581,2.0587,2.0592,2.0663,0,0,0,0,0,0,2.0055,2.0073,2.0111,2.0139,2.0155,2.0265,2.02,2.0201,2.0229,2.0223,2.0259,2.0262,2.0259,2.0348,2.0363,2.0418,2.0322,2.0576,2.0583,2.059,2.0656,2.067,2.0683,0,0,0,0,0,2.0049,2.0129,2.0113,2.0128,2.0202,2.0268,2.0278,2.0271,2.0234,2.0273,2.0286,2.0261,2.0402,2.0357,2.0374,2.0431,2.0573,2.0581,2.0589,2.065,2.0667,2.0682,0,0,0,0,0,0,2.0109,2.0132,2.0115,2.0205,2.0235,2.026,2.0309,2.029,2.0333,2.0326,2.0318,2.0326,2.0415,2.0431,2.038,2.0536,2.0482,2.0494,2.0522,2.0539,2.0552,2.0548,2.0327,0,0,0,0,0,2.0132,2.0182,2.02,2.0278,2.0294,2.0299,2.0328,2.032,2.0352,2.0365,2.0384,2.0418,2.047,2.0505,2.0554,2.0657,2.0667,2.0705,2.0719,2.073,2.0741,2.0801,2.0819,2.0621,2.0621,2.0621,0,0,2.0182,2.02,2.0232,2.0291,2.0313,2.0368,2.031,2.037,2.0412,2.0375,2.0455,2.047,2.0508,2.0603,2.0646,2.0619,2.0798,2.074,2.0749,2.0755,2.0811,2.083,2.0847,2.0627,2.0626,2.0625,0,0,2.03,2.0318,2.0386,2.041,2.0443,2.0447,2.0463,2.0492,2.05,2.058,2.0555,2.0605,2.0695,2.0724,2.075,2.0882,2.0862,2.0898,2.0969,2.1027,2.1043,2.1057,2.1107,2.1125,2.0909,2.0909,2.0909,0,2.0358,2.0437,2.0425,2.0487,2.0515,2.0482,2.0554,2.0578,2.0627,2.0649,2.0618,2.0731,2.0754,2.0857,2.0889,2.091,2.0932,2.0895,2.1041,2.1055,2.1068,2.1116,2.1135,2.0914,2.0913,2.0913,2.0912,0,2.0508,2.0564,2.0615,2.0662,2.0696,2.0762,2.0764,2.08,2.079,2.0797,2.0881,2.0907,2.0963,2.0986,2.0977,2.1089,2.1072,2.1041,2.0987,2.1091,2.1137,2.1155,2.092,2.0918,2.0917,2.0916,0,0,2.0667,2.0706,2.0726,2.0748,2.0784,2.0828,2.0895,2.0947,2.098,2.1015,2.1074,2.1151,2.1123,2.1153,2.1148,2.1198,2.1305,2.1162,2.1163,2.119,2.1435,2.146,2.1481,2.1291,2.1294,2.1297,2.1433,0,2.079,2.0903,2.0896,2.1004,2.1058,2.1028,2.1087,2.1117,2.1126,2.1175,2.1186,2.1242,2.12,2.1218,2.1267,2.1282,2.1355,2.1272,2.1349,2.1352,2.1343,2.1504,2.153,2.1657,2.145,2.1453,2.1455,0,2.0949,2.0988,2.1102,2.1132,2.1154,2.1207,2.1255,2.1301,2.1336,2.134,2.1374,2.136,2.1432,2.1374,2.1474,2.1418,2.1449,2.1462,2.1467,2.1476,2.1412,2.1521,2.1697,2.1717,2.1482,2.148,2.1478,0,2.1058,2.1139,2.1219,2.1238,2.1274,2.1313,2.133,2.1361,2.1394,2.1437,2.1459,2.1511,2.154,2.1582,2.1585,2.1542,2.1687,2.1629,2.1696,2.1696,2.173,2.1728,2.1916,2.1745,2.1745,2.1744,2.1744,0,2.1197,2.1269,2.1268,2.1317,2.1398,2.1389,2.147,2.1484,2.1513,2.1567,2.1544,2.1596,2.1594,2.1648,2.165,2.1735,2.1747,2.1755,2.1756,2.1759,2.1759,2.1781,2.1774,2.1749,2.1748,2.1747,2.1746,0,2.1334,2.1335,2.142,2.1447,2.1456,2.1515,2.154,2.1588,2.1595,2.1664,2.168,2.1693,2.1755,2.176,2.1832,2.1834,2.1938,2.1927,2.1926,2.1925,2.1993,2.1988,2.2205,2.2235,2.2041,2.2043,2.2044,0,2.1424,2.1478,2.1511,2.1545,2.1564,2.1618,2.1651,2.1646,2.1682,2.1727,2.1771,2.183,2.1878,2.1979,2.1997,2.2053,2.2046,2.2118,2.2054,2.2057,2.2051,2.2049,2.2057,2.2131,2.2134,2.2135,2.2137,0,2.1586,2.1585,2.1632,2.1681,2.172,2.1759,2.1795,2.1824,2.1824,2.1866,2.1928,2.1965,2.2039,2.21,2.2155,2.2176,2.2159,2.2156,2.2175,2.2181,2.2179,2.2185,2.1963,2.2152,2.215,2.2149,2.2148,2.2148,2.1705,2.1753,2.1784,2.1839,2.1865,2.1899,2.1947,2.196,2.2011,2.2069,2.2063,2.2133,2.217,2.2242,2.2268,2.2325,2.2301,2.2328,2.2335,2.2343,2.2351,2.2167,2.2334,2.2334,2.2334,2.2333,2.2333,0,2.1869,2.1887,2.1937,2.1988,2.2032,2.2007,2.2047,2.2086,2.2147,2.2181,2.2228,2.2302,2.2361,2.2384,2.2442,2.2484,2.2478,2.25,2.2499,2.2505,2.2367,2.2346,2.2505,2.2505,2.2505,2.2505,2.2505,2.2504,2.1959,2.204,2.2043,2.2138,2.2157,2.2224,2.2249,2.2282,2.231,2.2392,2.244,2.2453,2.2485,2.2546,2.26,2.2606,2.263,2.2657,2.2659,2.2531,2.2514,2.2498,2.2478,2.2661,2.2662,2.2793,2.2794,2.2795]},{"header":{"parameterUnit":"m.s-1","parameterCategory":1,"la1":30.2991,"la2":30.254,"lo1":-89.0895,"lo2":-89.0444,"dy":0.0017,"dx":0.0017,"nx":28,"ny":28,"refTime":"2024-08-18T21:00:00:Z","depth":0,"parameterNumber":3,"parameterNumberName":"V-component_of_WINDS"},"data":[0,0,0,0,0,0,0,0,0,0,0,0,0,0,0,0,0,0,0,0,0,0,0,0,0,0,0,0,0,0,0,0,0,0,0,0,0,0,0,0,0,0,0,0,0,0,0,0,0,0,0,0,0,0,0,0,0,0,0.0339,0.034,0,0.0455,0.0457,0.0458,0.0441,0.0439,0.0437,0.0435,0.0555,0.056,0.0565,0,0,0,0,0,0,0,0,0,0,0,0,0,0.0098,0.0103,0.0338,0.034,0.0341,0.0455,0.0457,0.0458,0.0441,0.0439,0.0436,0.0434,0.0553,0.0559,0.0565,0,0,0,0,0,0,0,0,0,0,0,0,0,0.0208,0.0104,0.0338,0.0347,0.0349,0.0455,0.0457,0.0459,0.0442,0.0439,0.0436,0.0433,0.0551,0.0559,0.0566,0.0671,0,0,0.0589,0.0592,0,0,0,0,0,0,0,0,0.0201,0.0216,0.0344,0.0346,0.0349,0.0431,0.0416,0.053,0.0443,0.0406,0.0435,0.0432,0.0516,0.0526,0.0554,0.0677,0.0682,0.059,0.0594,0.0597,0.06,0,0,0,0,0,0,0,0.0194,0.0211,0.0385,0.0346,0.0349,0.0344,0.0356,0.0437,0.0476,0.0409,0.0408,0.0422,0.0517,0.0547,0.0557,0.0684,0.0589,0.0596,0.0601,0.0604,0.0893,0.0896,0,0,0,0,0,0,0.0184,0.0205,0.0381,0.0388,0.0266,0.035,0.0364,0.0407,0.0475,0.0483,0.0425,0.0421,0.0536,0.0548,0.0561,0.0685,0.0597,0.0604,0.0609,0.089,0.0894,0.0897,0,0,0,0,0,0,0.0179,0.02,0.0376,0.0296,0.0318,0.0358,0.0406,0.0411,0.0442,0.0487,0.0494,0.0449,0.0534,0.0551,0.0643,0.069,0.0608,0.0615,0.0886,0.0891,0.0896,0.0937,0,0,0,0,0,0,0.0172,0.0198,0.024,0.0297,0.0323,0.0457,0.0409,0.0415,0.0455,0.0451,0.0512,0.0519,0.0533,0.0632,0.065,0.0698,0.062,0.0882,0.0889,0.0894,0.0932,0.0943,0.0952,0,0,0,0,0,0.0164,0.0248,0.0242,0.0263,0.0375,0.046,0.0474,0.0489,0.0459,0.0499,0.0528,0.0517,0.0682,0.0641,0.0662,0.0713,0.0879,0.0887,0.0894,0.0927,0.094,0.0952,0,0,0,0,0,0,0.0195,0.0256,0.025,0.0355,0.0402,0.0457,0.0509,0.0503,0.056,0.0554,0.057,0.0584,0.0676,0.0704,0.0658,0.0816,0.0776,0.0788,0.0794,0.0808,0.0817,0.0808,0.0627,0,0,0,0,0,0.0215,0.0279,0.0328,0.0416,0.0439,0.047,0.0508,0.0514,0.0564,0.0584,0.0619,0.0668,0.0729,0.077,0.0831,0.0936,0.0947,0.0981,0.0991,0.0999,0.1008,0.1062,0.1076,0.0921,0.0921,0.0921,0,0,0.0255,0.0296,0.0335,0.0423,0.046,0.0524,0.0487,0.0558,0.0605,0.0595,0.0683,0.071,0.0765,0.0863,0.0908,0.0889,0.1054,0.1008,0.1014,0.1019,0.1071,0.1085,0.1098,0.0926,0.0925,0.0924,0,0,0.0361,0.0399,0.0475,0.0512,0.0569,0.0588,0.0606,0.0661,0.0678,0.0767,0.0759,0.0815,0.0923,0.0961,0.0994,0.111,0.1101,0.113,0.1182,0.1234,0.1246,0.1257,0.1295,0.1309,0.1139,0.1139,0.1139,0,0.0404,0.0501,0.0515,0.0585,0.0622,0.0615,0.069,0.0726,0.0799,0.0824,0.0802,0.0934,0.0971,0.1075,0.1103,0.1132,0.1151,0.1122,0.1244,0.1255,0.1265,0.1301,0.1316,0.1142,0.1142,0.1142,0.1141,0,0.0549,0.0616,0.0671,0.074,0.0783,0.0856,0.0879,0.0921,0.0924,0.0944,0.1033,0.1076,0.1142,0.1168,0.1172,0.1272,0.1258,0.124,0.12,0.1282,0.1316,0.1331,0.1146,0.1145,0.1144,0.1144,0,0,0.0679,0.0752,0.0772,0.0801,0.0861,0.0913,0.0984,0.1049,0.1083,0.1133,0.1191,0.1281,0.1263,0.13,0.1308,0.1354,0.1438,0.133,0.1331,0.1345,0.1547,0.1558,0.1574,0.1433,0.1436,0.1438,0.1541,0,0.0788,0.0913,0.0926,0.1037,0.1097,0.1089,0.115,0.1193,0.1214,0.1267,0.129,0.1352,0.1326,0.1347,0.1393,0.1418,0.1478,0.1412,0.1484,0.1487,0.1468,0.1593,0.1606,0.1701,0.1555,0.1557,0.1559,0,0.0932,0.0984,0.1101,0.1149,0.1175,0.123,0.1287,0.134,0.1386,0.1398,0.1438,0.1439,0.151,0.1468,0.1563,0.1517,0.1548,0.1565,0.1569,0.1574,0.1526,0.1599,0.1732,0.1745,0.158,0.1579,0.1577,0,0.101,0.1111,0.1192,0.1218,0.1278,0.1315,0.1342,0.1386,0.1422,0.1473,0.1496,0.1555,0.1586,0.163,0.1645,0.1614,0.1739,0.1699,0.1748,0.1748,0.1774,0.1772,0.1912,0.1798,0.1798,0.1798,0.1797,0,0.1129,0.12,0.1228,0.1278,0.1356,0.1369,0.1446,0.147,0.1509,0.1562,0.156,0.1609,0.1628,0.168,0.1693,0.1767,0.1783,0.1792,0.1794,0.1791,0.1789,0.181,0.1802,0.1802,0.1801,0.18,0.1799,0,0.123,0.1252,0.1339,0.1387,0.1401,0.1456,0.1496,0.1543,0.1562,0.1629,0.1646,0.1676,0.1736,0.1756,0.1831,0.1839,0.1925,0.1923,0.1909,0.1909,0.1955,0.1949,0.2111,0.2132,0.2007,0.2009,0.201,0,0.1303,0.1357,0.141,0.1445,0.1472,0.1529,0.1565,0.158,0.1618,0.1673,0.1713,0.1773,0.1822,0.1919,0.1947,0.2002,0.1999,0.2052,0.2008,0.2001,0.1996,0.1991,0.1995,0.206,0.2061,0.2062,0.2063,0,0.1429,0.1436,0.1489,0.1545,0.1588,0.1633,0.1676,0.1705,0.1725,0.1767,0.1829,0.1866,0.1941,0.1999,0.2055,0.2081,0.2074,0.2077,0.209,0.2087,0.2075,0.2078,0.1929,0.2073,0.2072,0.2071,0.2071,0.207,0.1516,0.1562,0.1605,0.1663,0.1696,0.1736,0.1781,0.1805,0.1857,0.1918,0.1923,0.1989,0.2031,0.2105,0.2133,0.2183,0.2168,0.2189,0.2194,0.2198,0.22,0.2069,0.2194,0.2194,0.2194,0.2193,0.2193,0,0.1639,0.1666,0.1719,0.1778,0.1823,0.1813,0.1859,0.1897,0.1954,0.1994,0.2041,0.211,0.2166,0.2197,0.2252,0.2286,0.2284,0.23,0.2296,0.2301,0.2212,0.2193,0.23,0.23,0.23,0.23,0.23,0.23,0.1708,0.1784,0.1796,0.1887,0.1913,0.1977,0.2004,0.2039,0.207,0.2147,0.2193,0.2213,0.2248,0.2305,0.2355,0.2363,0.2382,0.2398,0.2404,0.2319,0.2308,0.2298,0.228,0.2403,0.2403,0.2488,0.2489,0.249]}]]